Location: Unspecified
(0.0000°N, 0.0000°E)
Time: 02:48:59
(UTC+00:00)

SPEKTR R - Pass Details

Date: 03 February 2022
Orbit: 10803 x 352326 km, 33.0° (Epoch: 22 May)

Event Time Altitude Azimuth Distance (km) Brightness Sun altitude
Rises 17:14:26 0° 85° (E) 353,003 13.8 14.2°
Reaches altitude 10° 17:55:04 10° 85° (E) 352,321 13.8 4.5°
Maximum altitude 23:13:12 85° 360° (N) 349,904 13.8 -67.7°
Drops below altitude 10° 04:31:11 10° 274° (W) 356,823 13.8 -24.5°
Sets 05:11:44 0° 274° (W) 358,081 13.8 -14.9°
